Latest Coastal Weather Observations for Truscott

IDW60701

Issued at 12:02 am WST Tuesday 7 July 2015 (issued every 10 minutes, with the page automatically refreshed every 10 minutes)

About coastal observations | Map of coastal stations | Coastal observations for WA | Marine services | Other Formats
Station Details ID: 001020 Name: TRUSCOTT Lat: -14.09 Lon: 126.39 Height: 51.0 m
Data from the previous 72 hours. | See also: Recent months at Truscott
Date/Time
WST
Temp

°C
Wind Pressure Rain
since 9am
mm
Weather Cloud Vis
km
Sea
Height
m
Swell
Dir
 
Speed
knots
Gust
knots
hPa Trend Height
m
Period
s
Dir
07/12:00am 24.2 SSE 2 6 1011.8 - 0.0 - Mostly cloudy 5 - - - -
 
Date/Time
WST
Temp

°C
Wind Pressure Rain
since 9am
mm
Weather Cloud Vis
km
Sea
Height
m
Swell
Dir
 
Speed
knots
Gust
knots
hPa Trend Height
m
Period
s
Dir
06/11:30pm 24.0 ESE 3 - 1012.0 - 0.0 - Cloudy 5 - - - -
06/11:04pm 23.0 ESE 3 - 1012.0 - 0.0 - Cloudy 5 - - - -
06/11:03pm 23.0 ESE 3 - 1012.0 - 0.0 - Cloudy 6 - - - -
06/11:00pm 23.0 E 3 - 1012.0 - 0.0 - Cloudy 6 - - - -
06/10:43pm 23.0 E 3 - 1012.0 - 0.0 - Cloudy 5 - - - -
06/10:30pm 23.0 ENE 3 - 1012.0 - 0.0 - Cloudy 7 - - - -
06/10:00pm 24.0 E 3 - 1012.0 - 0.0 - Cloudy 6 - - - -
06/09:30pm 23.0 E 4 - 1013.0 - 0.0 - Cloudy 8 - - - -
06/09:08pm 23.0 E 3 - 1013.0 - 0.0 - Cloudy 6 - - - -
06/09:00pm 23.5 E 3 - 1012.8 - 0.0 - Mostly cloudy 6 - - - -
06/08:30pm 24.0 ENE 3 - 1013.0 - 0.0 - Cloudy 4 - - - -
06/08:00pm 24.0 CALM 0 - 1013.0 - 0.0 - Cloudy 5 - - - -
06/07:30pm 24.0 NE 2 - 1012.0 - 0.0 - Cloudy 5 - - - -
06/07:10pm 24.0 ENE 3 - 1012.0 - 0.0 - Cloudy 5 - - - -
06/07:00pm 25.0 NE 3 - 1012.0 - 0.0 - Cloudy 7 - - - -
06/06:30pm 25.0 NNE 4 - 1012.0 - 0.0 - Cloudy 6 - - - -
06/06:00pm 24.8 N 4 - 1011.6 - 0.0 - Mostly cloudy 6 - - - -
06/05:30pm 25.0 NNE 6 - 1011.0 - 0.0 - Cloudy 7 - - - -
06/05:00pm 25.0 N 7 - 1011.0 - 0.0 - Cloudy 8 - - - -
06/04:30pm 26.0 N 8 - 1011.0 - 0.0 - Partly cloudy 7 - - - -
06/04:25pm 27.0 N 7 - 1011.0 - 0.0 - Cloudy 7 - - - -
06/04:00pm 28.0 NNE 6 - 1011.0 - 0.0 - Cloudy 5 - - - -
06/03:49pm 29.0 NE 6 - 1011.0 - 0.0 - Cloudy 5 - - - -
06/03:30pm 29.0 NE 7 - 1010.0 - 0.0 - Cloudy 10 - - - -
06/03:00pm 28.9 ENE 6 - 1010.5 - 0.0 - Mostly cloudy 9 - - - -
06/02:30pm 29.0 E 8 - 1011.0 - 0.0 - Partly cloudy 9 - - - -
06/02:00pm 30.0 E 8 - 1011.0 - 0.0 - Partly cloudy 10 - - - -
06/01:30pm 30.0 E 7 - 1011.0 - 0.0 - Partly cloudy 8 - - - -
06/01:00pm 29.0 E 10 - 1011.0 - 0.0 - Partly cloudy 10 - - - -
06/12:30pm 28.0 ESE 7 - 1012.0 - 0.0 - Partly cloudy 10 - - - -
06/12:00pm 28.0 SE 9 - 1012.2 - 0.0 - Partly cloudy 10 - - - -
06/11:30am 28.0 SE 8 - 1013.0 - 0.0 - Partly cloudy 10 - - - -
06/11:00am 28.0 SSE 8 - 1013.0 - 0.0 - Partly cloudy 10 - - - -
06/10:30am 28.0 ESE 9 - 1014.0 - 0.0 - Partly cloudy 10 - - - -
06/10:00am 28.0 SE 6 6 1014.0 - 0.0 - Partly cloudy 10 - - - -
06/09:30am 26.0 SSE 7 - 1014.0 - 0.0 - Partly cloudy 10 - - - -
06/09:00am 25.4 S 7 - 1014.8 - 0.0 - Cloudy 10 - - - -
06/08:30am 24.0 S 6 9 1015.0 - 0.0 - Partly cloudy 10 - - - -
06/08:00am 24.0 S 7 9 1014.0 - 0.0 - Partly cloudy 10 - - - -
06/07:30am 23.0 S 5 6 1014.0 - 0.0 - Cloudy 10 - - - -
06/07:00am 20.0 S 4 - 1014.0 - 0.0 - Partly cloudy 10 - - - -
06/06:30am 19.0 S 4 - 1014.0 - 0.0 - Partly cloudy 10 - - - -
06/06:00am 17.9 S 4 - 1013.6 - 0.0 - Mostly cloudy 10 - - - -
06/05:30am 18.0 S 5 - 1013.0 - 0.0 - Partly cloudy 10 - - - -
06/05:00am 18.0 S 4 - 1013.0 - 0.0 - Partly cloudy 10 - - - -
06/04:30am 17.0 S 4 - 1013.0 - 0.0 - - 10 - - - -
06/04:00am 18.0 SSW 6 - 1012.0 - 0.0 - - 10 - - - -
06/03:30am 18.0 SW 4 - 1012.0 - 0.0 - - 10 - - - -
06/03:00am 17.2 SW 4 - 1012.3 - 0.0 - - 10 - - - -
06/02:30am 17.0 SSW 4 - 1012.0 - 0.0 - - 10 - - - -
06/02:00am 17.0 SW 4 - 1012.0 - 0.0 - - 10 - - - -
06/01:30am 17.0 SW 3 - 1012.0 - 0.0 - - 10 - - - -
06/01:00am 17.0 S 3 - 1013.0 - 0.0 - - 10 - - - -
06/12:53am 17.0 S 4 - 1013.0 - 0.0 - - 10 - - - -
06/12:30am 17.0 SSE 4 - 1013.0 - 0.0 - - 2 - - - -
06/12:00am 18.0 SSE 4 5 1013.1 - 0.0 - - 2 - - - -
 
Date/Time
WST
Temp

°C
Wind Pressure Rain
since 9am
mm
Weather Cloud Vis
km
Sea
Height
m
Swell
Dir
 
Speed
knots
Gust
knots
hPa Trend Height
m
Period
s
Dir
05/11:30pm 18.0 SE 4 - 1013.0 - 0.0 - - 4 - - - -
05/11:00pm 18.0 E 4 - 1013.0 - 0.0 - - 4 - - - -
05/10:30pm 19.0 E 4 - 1013.0 - 0.0 - - 4 - - - -
05/10:00pm 19.0 E 5 - 1013.0 - 0.0 - - 3 - - - -
05/09:30pm 19.0 E 4 - 1014.0 - 0.0 - - 2 - - - -
05/09:00pm 20.0 E 5 - 1013.7 - 0.0 - - 2 - - - -
05/08:30pm 20.0 E 4 - 1014.0 - 0.0 - - 2 - - - -
05/08:00pm 20.0 E 5 - 1014.0 - 0.0 - - 5 - - - -
05/07:41pm 20.0 CALM 0 - 1013.0 - 0.0 - - 5 - - - -
05/07:30pm 20.0 CALM 0 - 1013.0 - 0.0 - - 7 - - - -
05/07:00pm 21.0 CALM 0 - 1013.0 - 0.0 - - 10 - - - -
05/06:30pm 22.0 NNE 1 - 1013.0 - 0.0 - - 10 - - - -
05/06:00pm 22.7 N 1 - 1012.8 - 0.0 - - 7 - - - -
05/05:30pm 24.0 NNE 1 - 1012.0 - 0.0 - - 10 - - - -
05/05:00pm 25.0 NNE 5 - 1012.0 - 0.0 - - 10 - - - -
05/04:30pm 26.0 NNE 5 - 1012.0 - 0.0 - - 10 - - - -
05/04:00pm 27.0 N 8 - 1012.0 - 0.0 - - 10 - - - -
05/03:30pm 27.0 N 7 - 1012.0 - 0.0 - - 9 - - - -
05/03:00pm 26.5 N 9 - 1011.9 - 0.0 - - 10 - - - -
05/02:30pm 27.0 N 10 - 1012.0 - 0.0 - - 10 - - - -
05/02:00pm 27.0 N 10 - 1012.0 - 0.0 - - 10 - - - -
05/01:30pm 29.0 NNE 6 - 1012.0 - 0.0 - - 10 - - - -
05/01:00pm 29.0 E 7 - 1013.0 - 0.0 - - 10 - - - -
05/12:30pm 29.0 E 8 - 1013.0 - 0.0 - - 9 - - - -
05/12:00pm 28.1 E 8 - 1014.0 - 0.0 - - 10 - - - -
05/11:30am 28.0 E 7 - 1014.0 - 0.0 - - 10 - - - -
05/11:00am 28.0 E 8 - 1015.0 - 0.0 - - 10 - - - -
05/10:30am 27.0 ESE 7 - 1015.0 - 0.0 - - 10 - - - -
05/10:00am 27.0 ESE 7 - 1015.0 - 0.0 - - 10 - - - -
05/09:30am 27.0 ESE 8 - 1016.0 - 0.0 - - 10 - - - -
05/09:00am 25.7 ESE 7 - 1016.0 - 0.0 - - 10 - - - -
05/08:30am 25.0 ESE 10 - 1016.0 - 0.0 - - 10 - - - -
05/08:00am 24.0 ESE 7 - 1016.0 - 0.0 - - 10 - - - -
05/07:30am 23.0 ESE 7 - 1016.0 - 0.0 - - 10 - - - -
05/07:00am 21.0 SE 5 - 1015.0 - 0.0 - - 10 - - - -
05/06:30am 19.0 SE 5 - 1015.0 - 0.0 - - 10 - - - -
05/06:00am 18.4 SE 5 - 1015.2 - 0.0 - - 10 - - - -
05/05:30am 18.0 SE 4 - 1015.0 - 0.0 - - 10 - - - -
05/05:00am 19.0 S 4 - 1014.0 - 0.0 - - 10 - - - -
05/04:30am 18.0 SSW 5 - 1014.0 - 0.0 - - 10 - - - -
05/04:00am 17.0 SSW 3 - 1014.0 - 0.0 - - 10 - - - -
05/03:30am 17.0 SSE 3 - 1014.0 - 0.0 - - 10 - - - -
05/03:00am 17.4 S 4 - 1013.8 - 0.0 - - 10 - - - -
05/02:30am 18.0 S 3 - 1014.0 - 0.0 - - 10 - - - -
05/02:00am 18.0 S 3 - 1014.0 - 0.0 - - 10 - - - -
05/01:30am 19.0 S 4 - 1014.0 - 0.0 - - 10 - - - -
05/01:00am 19.0 SSE 4 - 1014.0 - 0.0 - - 10 - - - -
05/12:30am 19.0 S 5 - 1014.0 - 0.0 - - 10 - - - -
05/12:00am 18.7 SSE 3 - 1014.0 - 0.0 - - 10 - - - -
 
Date/Time
WST
Temp

°C
Wind Pressure Rain
since 9am
mm
Weather Cloud Vis
km
Sea
Height
m
Swell
Dir
 
Speed
knots
Gust
knots
hPa Trend Height
m
Period
s
Dir
04/11:30pm 19.0 S 2 - 1014.0 - 0.0 - - 10 - - - -
04/10:30pm 19.0 E 2 - 1014.0 - 0.0 - - 10 - - - -
04/10:00pm 19.0 E 3 - 1014.0 - 0.0 - - 10 - - - -
04/09:30pm 20.0 ENE 3 - 1014.0 - 0.0 - - 10 - - - -
04/09:00pm 20.0 ENE 4 - 1014.2 - 0.0 - - 10 - - - -
04/08:30pm 20.0 ENE 4 - 1014.0 - 0.0 - - 10 - - - -
04/08:00pm 21.0 NE 3 - 1014.0 - 0.0 - - 10 - - - -
04/07:30pm 22.0 NE 3 - 1014.0 - 0.0 - - 10 - - - -
04/07:00pm 22.0 NNE 3 - 1013.0 - 0.0 - - 10 - - - -
04/06:30pm 23.0 NNE 3 - 1013.0 - 0.0 - - 10 - - - -
04/06:00pm 24.1 NE 4 - 1012.5 - 0.0 - - 10 - - - -
04/05:30pm 25.0 NNE 6 - 1012.0 - 0.0 - - 10 - - - -
04/05:00pm 26.0 NE 7 - 1012.0 - 0.0 - - 10 - - - -
04/04:30pm 27.0 NNE 7 - 1012.0 - 0.0 - - 10 - - - -
04/04:00pm 28.0 NNE 9 - 1011.0 - 0.0 - - 10 - - - -
04/03:30pm 28.0 N 10 - 1011.0 - 0.0 - - 10 - - - -
04/03:00pm 27.9 N 11 - 1011.4 - 0.0 - - 10 - - - -
04/02:30pm 30.0 NNE 7 - 1011.0 - 0.0 - - 10 - - - -
04/02:00pm 30.0 ENE 8 - 1012.0 - 0.0 - - 10 - - - -
04/01:30pm 30.0 ENE 9 - 1012.0 - 0.0 - - 10 - - - -
04/01:00pm 29.0 ENE 7 - 1013.0 - 0.0 - - 10 - - - -
04/12:30pm 29.0 E 7 - 1013.0 - 0.0 - - 10 - - - -
04/12:00pm 29.0 E 9 - 1013.8 - 0.0 - - 10 - - - -
04/11:30am 28.0 E 9 - 1014.0 - 0.0 - - 10 - - - -
04/11:00am 28.0 ESE 10 - 1015.0 - 0.0 - - 10 - - - -
04/10:30am 28.0 E 9 - 1015.0 - 0.0 - - 10 - - - -
04/10:00am 27.0 ESE 10 - 1016.0 - 0.0 - - 10 - - - -
04/09:30am 27.0 E 11 - 1016.0 - 0.0 - - 10 - - - -
04/09:00am 26.1 E 11 - 1016.2 - 0.0 - - 10 - - - -
04/08:30am 26.0 ESE 9 - 1016.0 - 0.0 - - 10 - - - -
04/08:00am 25.0 ESE 9 - 1016.0 - 0.0 - - 10 - - - -
04/07:30am 24.0 ESE 6 - 1016.0 - 0.0 - - 10 - - - -
04/07:00am 23.0 ESE 5 - 1016.0 - 0.0 - - 10 - - - -
04/06:30am 21.0 SE 4 - 1015.0 - 0.0 - - 10 - - - -
04/06:00am 19.1 S 4 - 1014.8 - 0.0 - - 10 - - - -
04/05:30am 20.0 S 4 - 1014.0 - 0.0 - - 10 - - - -
04/05:00am 20.0 S 4 - 1014.0 - 0.0 - - 10 - - - -
04/04:30am 20.0 S 4 - 1014.0 - 0.0 - - 10 - - - -
04/04:00am 20.0 SSW 3 - 1014.0 - 0.0 - - 10 - - - -
04/03:30am 20.0 SSW 3 - 1014.0 - 0.0 - - 10 - - - -
04/03:00am 20.0 S 4 - 1013.6 - 0.0 - - 10 - - - -
04/02:30am 20.0 SSE 4 - 1014.0 - 0.0 - - 10 - - - -
04/02:00am 21.0 SE 4 - 1014.0 - 0.0 - Partly cloudy 7 - - - -
04/01:30am 21.0 SE 4 - 1014.0 - 0.0 - Partly cloudy 10 - - - -
04/01:00am 21.0 SE 4 - 1014.0 - 0.0 - Partly cloudy 9 - - - -
04/12:30am 21.0 SE 4 - 1014.0 - 0.0 - Partly cloudy 10 - - - -

Other Formats:

Comma delimited format used in spreadsheet applications
http://www.bom.gov.au/fwo/IDW60701/IDW60701.95101.axf

JavaScript Object Notation format (JSON) in row-major order
http://www.bom.gov.au/fwo/IDW60701/IDW60701.95101.json